TimeCDT,TemperatureF,Dew PointF,Humidity,Sea Level PressureIn,VisibilityMPH,Wind Direction,Wind SpeedMPH,Gust SpeedMPH,PrecipitationIn,Events,Conditions,WindDirDegrees,DateUTC
12:15 AM,69.8,69.8,100,30.11,10.0,ENE,3.5,-,N/A,,Clear,70,2012-10-04 05:15:00
12:35 AM,69.8,69.8,100,30.11,10.0,Calm,Calm,-,N/A,,Clear,0,2012-10-04 05:35:00
12:55 AM,71.6,71.6,100,30.12,10.0,Calm,Calm,-,N/A,,Clear,0,2012-10-04 05:55:00
1:15 AM,69.8,69.8,100,30.12,10.0,ENE,3.5,-,N/A,,Clear,70,2012-10-04 06:15:00
1:35 AM,69.8,69.8,100,30.11,10.0,NE,3.5,-,N/A,,Clear,50,2012-10-04 06:35:00
1:55 AM,69.8,69.8,100,30.12,10.0,ENE,3.5,-,N/A,,Clear,60,2012-10-04 06:55:00
2:15 AM,69.8,69.8,100,30.12,10.0,Calm,Calm,-,N/A,,Clear,0,2012-10-04 07:15:00
2:35 AM,69.8,69.8,100,30.12,10.0,ENE,3.5,-,N/A,,Clear,60,2012-10-04 07:35:00
2:55 AM,69.8,69.8,100,30.12,10.0,ENE,3.5,-,N/A,,Clear,60,2012-10-04 07:55:00
3:15 AM,69.8,69.8,100,30.11,10.0,ENE,3.5,-,N/A,,Clear,60,2012-10-04 08:15:00
3:35 AM,69.8,69.8,100,30.12,10.0,Calm,Calm,-,N/A,,Clear,0,2012-10-04 08:35:00
3:55 AM,69.8,69.8,100,30.12,10.0,NE,3.5,-,N/A,,Clear,50,2012-10-04 08:55:00
4:15 AM,69.8,69.8,100,30.12,10.0,Calm,Calm,-,N/A,,Clear,0,2012-10-04 09:15:00
4:35 AM,69.8,69.8,100,30.13,10.0,Calm,Calm,-,N/A,,Clear,0,2012-10-04 09:35:00
4:55 AM,68.0,68.0,100,30.13,10.0,Calm,Calm,-,N/A,,Clear,0,2012-10-04 09:55:00
5:15 AM,68.0,68.0,100,30.13,10.0,Calm,Calm,-,N/A,,Clear,0,2012-10-04 10:15:00
5:35 AM,66.2,66.2,100,30.14,10.0,Calm,Calm,-,N/A,,Clear,0,2012-10-04 10:35:00
5:55 AM,66.2,66.2,100,30.15,10.0,NNE,3.5,-,N/A,,Clear,30,2012-10-04 10:55:00
6:15 AM,68.0,68.0,100,30.15,10.0,NNE,3.5,-,N/A,,Clear,20,2012-10-04 11:15:00
6:35 AM,68.0,68.0,100,30.16,10.0,NNE,3.5,-,N/A,,Clear,30,2012-10-04 11:35:00
6:55 AM,68.0,68.0,100,30.16,7.0,NNE,3.5,-,N/A,,Clear,20,2012-10-04 11:55:00
7:15 AM,68.0,68.0,100,30.17,4.0,North,3.5,-,N/A,,Clear,350,2012-10-04 12:15:00
7:35 AM,68.0,68.0,100,30.17,4.0,North,5.8,-,N/A,,Clear,350,2012-10-04 12:35:00
7:55 AM,69.8,69.8,100,30.17,5.0,North,4.6,-,N/A,,Clear,360,2012-10-04 12:55:00
8:15 AM,71.6,71.6,100,30.18,10.0,NNE,4.6,-,N/A,,Clear,20,2012-10-04 13:15:00
8:35 AM,73.4,73.4,100,30.18,10.0,NE,5.8,-,N/A,,Clear,40,2012-10-04 13:35:00
8:55 AM,77.0,77.0,100,30.19,10.0,NE,6.9,-,N/A,,Clear,40,2012-10-04 13:55:00
9:15 AM,78.8,78.8,100,30.19,10.0,NNE,8.1,-,N/A,,Clear,30,2012-10-04 14:15:00
9:55 AM,80.6,78.8,94,30.20,10.0,NE,8.1,-,N/A,,Clear,50,2012-10-04 14:55:00
10:15 AM,80.6,77.0,89,30.20,10.0,NE,10.4,-,N/A,,Clear,50,2012-10-04 15:15:00
10:55 AM,82.4,75.2,79,30.20,10.0,NE,6.9,-,N/A,,Clear,40,2012-10-04 15:55:00
11:15 AM,82.4,73.4,74,30.20,10.0,NE,10.4,-,N/A,,Clear,50,2012-10-04 16:15:00
11:35 AM,82.4,75.2,79,30.19,10.0,ENE,5.8,-,N/A,,Scattered Clouds,60,2012-10-04 16:35:00
11:55 AM,82.4,73.4,74,30.19,10.0,ENE,10.4,-,N/A,,Clear,70,2012-10-04 16:55:00
12:15 PM,84.2,73.4,70,30.18,10.0,ENE,10.4,-,N/A,,Clear,60,2012-10-04 17:15:00
12:35 PM,86.0,73.4,66,30.18,10.0,ENE,9.2,-,N/A,,Clear,60,2012-10-04 17:35:00
12:55 PM,86.0,71.6,62,30.17,10.0,East,8.1,-,N/A,,Clear,80,2012-10-04 17:55:00
1:15 PM,84.2,69.8,62,30.17,10.0,ENE,8.1,-,N/A,,Scattered Clouds,60,2012-10-04 18:15:00
1:35 PM,82.4,69.8,66,30.17,10.0,ENE,10.4,16.1,N/A,,Scattered Clouds,60,2012-10-04 18:35:00
1:55 PM,82.4,71.6,70,30.16,10.0,ENE,9.2,-,N/A,,Scattered Clouds,70,2012-10-04 18:55:00
2:15 PM,82.4,69.8,66,30.16,10.0,East,6.9,-,N/A,,Scattered Clouds,90,2012-10-04 19:15:00
2:35 PM,82.4,69.8,66,30.15,10.0,ENE,6.9,-,N/A,,Scattered Clouds,70,2012-10-04 19:35:00
2:55 PM,82.4,71.6,70,30.15,10.0,ENE,8.1,-,N/A,,Scattered Clouds,70,2012-10-04 19:55:00
3:15 PM,82.4,73.4,74,30.15,10.0,ENE,8.1,-,N/A,,Scattered Clouds,70,2012-10-04 20:15:00
3:35 PM,84.2,71.6,66,30.14,10.0,East,8.1,-,N/A,,Clear,90,2012-10-04 20:35:00
3:55 PM,82.4,71.6,70,30.14,10.0,East,6.9,-,N/A,,Scattered Clouds,90,2012-10-04 20:55:00
4:15 PM,82.4,71.6,70,30.14,10.0,East,5.8,-,N/A,,Clear,90,2012-10-04 21:15:00
4:35 PM,80.6,71.6,74,30.14,10.0,ENE,5.8,-,N/A,,Clear,70,2012-10-04 21:35:00
4:55 PM,80.6,73.4,79,30.14,10.0,ENE,5.8,-,N/A,,Clear,70,2012-10-04 21:55:00
5:15 PM,80.6,75.2,84,30.14,10.0,ENE,5.8,-,N/A,,Scattered Clouds,70,2012-10-04 22:15:00
5:35 PM,80.6,75.2,84,30.14,10.0,ENE,8.1,-,N/A,,Scattered Clouds,70,2012-10-04 22:35:00
5:55 PM,80.6,75.2,84,30.13,10.0,East,4.6,-,N/A,,Scattered Clouds,80,2012-10-04 22:55:00
6:15 PM,80.6,73.4,79,30.14,10.0,East,5.8,-,N/A,,Scattered Clouds,80,2012-10-04 23:15:00
6:35 PM,78.8,73.4,83,30.14,10.0,East,5.8,-,N/A,,Clear,80,2012-10-04 23:35:00
6:55 PM,78.8,75.2,89,30.15,10.0,East,4.6,-,N/A,,Clear,80,2012-10-04 23:55:00
7:15 PM,77.0,75.2,94,30.14,10.0,ENE,4.6,-,N/A,,Clear,70,2012-10-05 00:15:00
7:35 PM,77.0,75.2,94,30.15,10.0,ENE,4.6,-,N/A,,Clear,70,2012-10-05 00:35:00
7:55 PM,77.0,75.2,94,30.15,10.0,ENE,3.5,-,N/A,,Clear,60,2012-10-05 00:55:00
8:15 PM,75.2,75.2,100,30.14,10.0,Calm,Calm,-,N/A,,Clear,0,2012-10-05 01:15:00
8:35 PM,73.4,73.4,100,30.14,10.0,ENE,3.5,-,N/A,,Clear,60,2012-10-05 01:35:00
9:15 PM,73.4,73.4,100,30.15,10.0,Calm,Calm,-,N/A,,Clear,0,2012-10-05 02:15:00
9:35 PM,71.6,71.6,100,30.15,10.0,NE,3.5,-,N/A,,Clear,50,2012-10-05 02:35:00
9:55 PM,71.6,71.6,100,30.15,10.0,Calm,Calm,-,N/A,,Clear,0,2012-10-05 02:55:00
10:15 PM,71.6,71.6,100,30.16,10.0,Calm,Calm,-,N/A,,Clear,0,2012-10-05 03:15:00
10:35 PM,71.6,71.6,100,30.15,10.0,ENE,3.5,-,N/A,,Clear,60,2012-10-05 03:35:00
10:55 PM,71.6,71.6,100,30.15,10.0,East,3.5,-,N/A,,Clear,80,2012-10-05 03:55:00
11:15 PM,71.6,71.6,100,30.15,10.0,Calm,Calm,-,N/A,,Clear,0,2012-10-05 04:15:00
11:35 PM,69.8,69.8,100,30.15,7.0,Calm,Calm,-,N/A,,Clear,0,2012-10-05 04:35:00
11:55 PM,68.0,68.0,100,30.14,1.2,Calm,Calm,-,N/A,,Mist,0,2012-10-05 04:55:00